RH
63 68 69 70 71 74 77 80 81 81 81 82 83 84 85 86 88 91 93 95 93 90 88 87 87 88 89 91 91 90 87 87 86 82 78 78 79 81 82 83 84 84
64 66 67 68 69 72 75 79 81 81 81 83 86 90 92 91 92 94 95 96 93 89 87 87 88 90 92 94 94 92 92 91 89 86 83 83 83 83 83 84 85 86
61 63 65 65 67 70 72 75 76 78 83 87 91 96 97 94 93 94 95 95 92 89 87 88 90 92 94 96 96 96 95 94 92 89 87 87 87 86 86 85 84 85
60 61 63 65 67 69 70 71 73 78 87 92 95 98 97 94 93 94 93 91 90 89 89 91 95 96 97 98 99 98 96 94 92 89 88 88 88 88 88 86 85 86
61 63 65 67 68 70 72 72 75 81 87 92 97 98 97 95 94 93 93 92 92 93 93 95 97 98 99 99 98 96 93 92 89 88 89 90 89 88 87 85 87 90
64 65 67 68 70 73 76 78 81 84 87 94 98 99 98 96 96 97 97 97 97 98 97 96 97 99 100 99 95 91 90 89 88 89 92 92 91 89 86 85 88 91
67 67 68 71 74 78 81 83 87 88 92 97 100 100 100 98 98 100 100 100 100 100 98 97 98 100 100 98 93 89 88 89 91 93 94 93 92 90 88 87 88 89
69 68 71 74 77 80 84 88 91 94 97 100 101 101 102 100 100 100 100 101 100 100 100 99 100 101 100 97 93 91 92 94 95 95 94 93 92 90 89 90 90 90
71 71 73 74 76 81 85 90 94 96 100 102 101 103 103 100 100 101 100 100 100 100 100 100 100 101 101 98 96 96 98 99 98 97 97 96 92 91 93 95 94 93
74 73 73 74 76 81 86 91 95 99 103 104 101 101 102 100 100 100 100 100 100 100 100 100 101 101 101 100 99 99 100 100 100 99 99 95 92 95 99 100 97 94
77 74 74 74 77 82 87 93 97 101 104 103 100 100 101 100 100 100 100 100 100 100 100 100 100 100 101 100 100 100 100 100 100 100 97 95 96 100 101 101 98 95
80 77 75 75 79 85 91 97 100 102 102 101 100 100 100 100 100 100 100 100 100 100 100 100 100 100 100 100 100 100 100 101 99 98 97 98 101 102 99 97 96 96
84 79 76 77 81 88 95 100 101 101 101 101 100 100 100 100 100 100 100 100 100 100 100 100 101 101 100 100 100 100 101 100 99 98 98 100 102 100 97 96 97 99
85 80 78 80 85 92 99 102 100 100 100 100 100 100 100 100 100 100 100 100 100 100 100 100 101 101 100 100 100 101 100 99 99 99 100 101 99 97 97 99 100 99
85 82 81 85 91 98 103 102 100 100 101 100 100 100 100 100 100 100 100 100 100 100 100 101 101 100 100 100 101 100 99 99 100 101 101 99 97 96 98 98 97 95
86 85 87 93 99 103 104 102 100 100 100 100 100 100 100 100 100 100 100 100 100 100 100 100 101 100 100 100 100 100 99 100 100 101 100 99 98 99 98 96 95 94
89 90 95 100 103 103 103 102 101 100 100 100 100 100 100 100 100 100 100 100 100 101 101 100 100 100 100 100 100 100 100 100 100 100 100 100 99 97 95 95 95 94
93 96 100 103 103 103 102 102 101 100 100 100 100 100 100 100 100 100 100 100 100 101 101 100 100 100 100 100 100 100 100 100 100 100 100 100 98 96 94 94 93 91
95 99 102 103 104 104 102 101 100 100 100 100 100 100 100 100 100 100 101 101 100 101 101 100 100 100 101 101 100 100 100 101 100 98 96 94 93 95 98 98 97 94
97 100 102 102 103 103 101 100 100 100 100 100 100 100 100 100 101 101 101 101 100 101 101 100 100 100 100 100 100 100 100 100 99 96 91 88 87 89 93 97 97 94
97 99 100 100 100 100 100 100 100 100 100 100 100 101 101 100 101 101 101 101 101 101 100 100 100 100 100 100 100 100 100 100 97 92 89 87 86 88 91 92 89 84
95 96 98 99 99 100 100 100 100 100 100 100 101 102 101 101 101 101 101 101 100 100 100 100 100 100 100 100 100 100 100 99 94 90 88 88 89 94 96 92 85 79
95 97 99 99 100 100 100 100 100 101 102 102 103 103 103 102 102 101 100 100 100 100 100 100 100 100 100 100 100 100 100 97 93 91 90 90 94 99 97 90 84 79
98 100 100 100 100 100 101 101 101 101 102 104 103 103 103 102 101 100 100 100 100 100 100 100 100 100 100 100 100 100 99 97 94 92 92 95 100 100 93 87 83 78
101 100 100 100 101 102 101 99 96 95 97 99 100 101 102 101 100 100 101 100 100 100 100 100 100 100 100 100 100 100 100 99 96 94 95 100 101 96 90 85 80 75
100 100 101 101 100 96 90 86 85 87 91 95 98 100 100 100 100 100 100 100 100 100 100 100 100 100 100 100 100 102 101 100 99 98 99 101 98 93 88 84 78 73
Wind_Speed
57 59 60 61 62 62 63 64 64 65 66 66 66 67 67 67 68 68 69 70 70 70 70 70 70 70 70 70 71 71 72 72 73 74 74 74 74 75 76 77 77 78
58 60 61 62 63 63 64 64 66 66 67 67 67 68 68 68 69 69 70 70 71 71 71 71 70 70 70 71 72 72 72 73 73 74 74 74 75 75 76 76 77 77
60 61 62 63 63 64 64 65 67 67 68 68 68 68 69 70 70 70 70 71 72 72 71 71 70 70 71 72 72 72 73 73 74 75 75 75 75 76 76 76 76 76
61 61 62 63 64 65 66 67 67 68 68 69 69 69 70 70 71 71 71 72 72 72 71 71 70 71 72 72 73 73 73 74 74 75 75 75 75 75 75 76 76 76
61 62 63 64 65 65 67 67 68 68 69 70 70 70 71 71 72 72 72 72 72 72 71 71 71 72 73 73 73 74 74 74 75 75 75 75 75 75 75 76 76 75
62 63 64 65 66 66 67 68 68 69 70 70 71 71 72 72 72 73 73 73 72 72 72 71 72 72 73 74 74 74 74 75 75 75 75 75 74 75 75 75 74 73
63 64 65 66 66 67 68 68 69 70 71 71 71 72 72 73 73 73 73 72 72 72 72 72 73 73 74 75 75 75 75 75 75 74 74 74 74 74 75 74 72 71
64 65 65 66 67 67 68 69 69 70 71 72 72 72 73 73 73 72 72 72 72 72 73 73 73 73 74 75 75 75 75 75 74 74 73 73 73 74 74 73 71 71
65 66 66 67 68 68 69 69 70 71 71 72 72 72 73 72 72 71 71 72 72 73 73 73 73 74 74 75 75 75 75 74 74 73 72 72 73 73 72 71 71 71
66 66 67 68 69 69 70 70 70 71 71 71 72 72 72 72 71 71 72 72 72 72 72 73 73 74 74 75 75 74 74 73 72 71 71 73 73 72 71 71 71 71
67 67 68 68 69 70 70 70 70 70 71 71 71 72 72 72 71 71 71 71 71 71 72 72 73 73 74 74 73 73 73 72 71 71 72 72 71 70 71 71 71 71
68 68 68 69 70 71 71 71 70 70 70 71 71 72 72 71 71 70 70 70 71 71 72 72 73 73 73 73 72 72 71 70 70 72 72 71 70 70 70 70 71 72
69 69 70 70 71 71 71 70 70 70 70 71 71 71 71 70 69 69 69 70 71 71 71 72 72 72 71 71 71 70 69 70 71 71 70 69 69 70 70 70 71 72
70 70 71 71 72 72 71 70 70 70 70 71 71 71 70 69 69 69 70 70 71 71 71 71 71 70 70 70 69 69 70 71 71 69 68 68 69 69 69 70 71 73
70 71 72 73 73 72 71 70 69 70 70 71 71 70 69 69 69 69 70 70 71 71 71 70 69 69 69 68 68 69 70 70 68 68 68 68 68 68 69 70 72 74
71 72 73 73 72 71 70 69 69 70 70 70 69 68 68 69 69 70 70 71 71 70 69 69 68 68 67 68 69 70 69 68 67 67 67 67 68 68 69 71 73 76
72 73 73 72 71 69 69 69 69 70 70 69 68 68 69 69 70 70 70 70 70 69 68 68 67 67 67 68 69 68 67 66 66 66 66 67 68 69 70 72 75 77
73 73 72 71 69 69 69 69 69 69 68 68 68 68 69 70 70 70 69 69 69 68 68 67 67 67 67 68 68 67 66 66 65 66 66 67 68 70 72 74 77 79
73 72 71 69 69 68 69 69 69 68 68 68 69 69 70 69 69 69 68 68 68 68 67 67 66 66 66 66 66 66 66 65 65 66 66 67 68 71 74 76 78 80
72 70 69 69 68 69 68 68 68 68 68 69 69 69 68 68 68 68 68 68 67 67 67 66 65 64 65 65 65 65 65 66 66 67 67 68 70 72 75 77 78 80
70 69 69 68 68 68 68 68 68 68 69 68 68 67 67 68 68 68 67 67 66 66 65 64 63 63 64 64 64 64 65 66 67 68 68 70 72 74 76 77 79 80
69 69 68 68 67 67 67 68 68 68 67 67 67 67 68 68 68 67 66 66 65 64 63 62 61 62 63 63 64 65 66 67 68 69 70 72 74 75 77 78 79 80
68 67 67 67 67 67 67 67 66 66 66 67 67 67 68 67 67 66 65 64 63 62 61 60 60 60 62 63 64 65 67 68 69 71 72 74 75 76 77 78 80 81
66 66 66 66 66 66 66 65 65 66 66 67 67 67 67 67 65 64 63 62 61 61 60 59 59 60 62 63 64 66 68 70 71 73 74 75 75 76 78 78 79 80
65 65 66 65 65 64 64 65 65 66 67 67 67 67 66 65 64 62 61 61 60 59 59 59 59 60 62 64 65 68 70 72 73 74 74 75 76 77 78 78 79 79
65 65 64 64 63 63 64 65 66 67 67 67 67 66 64 63 61 60 60 59 58 58 58 59 59 60 62 65 67 70 72 74 74 75 75 76 77 78 78 78 79 79
Wind_Direction
300 299 298 297 297 297 297 296 296 295 294 294 293 292 291 290 290 289 288 287 287 287 287 287 287 287 288 288 288 289 289 290 290 290 291 291 292 291 291 290 289 288
300 299 298 298 298 297 297 297 296 295 295 295 294 293 292 291 290 289 288 288 287 287 287 288 288 288 288 288 289 289 290 290 290 291 291 292 292 292 291 290 289 288
301 300 299 299 298 298 297 296 295 296 296 296 295 294 292 291 290 289 289 288 288 288 288 288 288 288 288 289 289 290 290 290 291 291 292 292 292 292 291 290 289 287
302 301 300 299 298 297 296 296 296 296 296 295 295 294 293 292 291 290 289 288 288 288 288 288 288 288 289 289 289 290 290 291 291 292 292 292 292 291 290 289 288 287
302 301 300 299 298 297 296 296 296 295 295 294 294 294 293 292 291 290 289 288 288 288 288 289 289 289 289 289 290 290 291 291 292 292 293 292 292 291 290 288 287 286
302 301 300 299 298 298 297 296 295 295 294 294 294 293 292 291 291 290 289 289 289 289 289 289 289 289 290 290 290 291 292 292 292 293 292 292 291 290 288 287 287 286
301 300 299 299 299 298 297 296 295 294 294 293 293 292 292 291 291 290 289 289 288 288 289 289 289 290 290 290 291 292 292 292 293 292 291 291 290 288 287 287 287 287
301 300 300 299 298 297 296 295 294 294 293 293 292 292 292 291 290 289 288 288 288 288 289 289 290 290 290 291 292 292 292 292 292 291 291 290 288 287 287 288 287 287
301 300 299 299 298 297 296 295 294 294 293 293 292 292 291 291 289 288 287 287 287 288 288 289 290 290 290 291 291 292 292 292 291 290 289 288 287 287 288 288 287 287
300 299 298 298 297 297 296 295 295 294 293 292 292 292 291 289 288 287 286 286 287 288 288 289 289 290 290 290 291 291 291 290 290 289 287 286 287 288 288 288 288 288
299 298 298 297 297 296 296 295 294 293 293 292 291 291 289 288 286 286 286 286 287 288 288 289 289 290 290 290 290 290 289 289 288 287 286 287 288 288 288 288 289 289
298 297 297 297 297 296 296 295 294 293 292 291 291 290 288 287 286 286 286 286 287 288 288 289 289 289 289 289 289 289 288 287 286 285 286 287 288 288 288 289 290 290
297 297 297 297 297 296 295 294 294 292 292 291 291 289 288 287 286 286 286 287 288 288 289 289 289 289 289 289 288 287 286 285 284 285 287 288 288 288 289 290 290 291
297 297 297 297 296 296 295 294 293 292 292 292 291 289 288 287 287 287 288 288 289 289 289 289 289 290 290 289 287 285 284 284 285 286 287 287 287 288 290 291 291 291
297 297 297 297 296 296 295 294 293 293 292 291 290 289 287 287 288 288 289 289 289 290 290 290 290 290 289 287 285 283 284 285 286 287 287 287 288 289 290 291 291 292
297 297 297 296 296 296 295 294 294 293 292 291 289 288 288 288 289 290 290 290 290 290 291 291 291 289 287 285 283 283 285 286 286 286 287 288 289 290 291 291 292 293
297 297 297 296 296 296 295 294 294 293 292 290 289 289 289 290 290 290 291 291 291 291 291 291 290 288 285 284 284 285 286 286 286 287 288 289 290 291 292 292 293 294
297 297 297 297 297 296 295 294 293 292 291 290 290 290 291 291 291 291 292 292 292 292 291 290 289 287 285 284 285 285 286 286 287 288 289 290 291 292 293 293 294 295
298 298 298 298 297 296 295 294 293 292 291 291 291 292 292 292 292 292 293 293 293 292 291 290 288 286 285 285 285 286 287 287 287 288 289 291 292 293 294 295 296 296
299 298 298 297 297 296 295 294 293 292 292 292 292 292 293 293 293 293 294 293 292 291 290 289 287 286 285 285 286 287 287 287 288 289 291 292 293 294 295 295 296 296
298 298 298 297 297 295 294 294 293 293 293 293 293 294 294 294 295 294 294 293 292 290 289 288 286 285 285 286 287 287 287 288 289 291 293 294 294 295 295 295 295 295
298 298 298 297 296 295 294 294 294 294 294 295 295 296 296 296 295 294 293 292 291 289 287 286 286 286 286 287 287 288 288 289 291 293 294 295 296 296 296 296 296 296
299 298 298 297 296 295 294 295 295 296 297 297 297 297 297 296 295 294 293 291 289 287 287 287 287 287 287 287 288 289 290 291 293 294 295 296 296 296 296 296 297 298
299 298 297 296 296 295 296 296 297 298 298 298 298 298 297 296 294 293 291 289 288 287 287 287 287 287 287 288 289 290 291 293 294 295 296 296 296 296 296 297 297 298
298 297 296 296 296 297 298 299 299 299 299 299 299 298 296 294 292 291 289 288 287 287 287 288 288 288 289 289 290 291 293 294 295 296 296 296 296 296 296 297 298 299
298 297 297 298 298 299 300 300 300 300 300 299 298 297 295 293 291 290 289 288 288 288 288 289 289 289 290 291 292 293 294 295 296 296 296 296 296 296 297 298 298 299